Patuxent River Naval Air Station,Trapnell Field Aiport Patuxent River US
ICAO: KNHK
IATA: NHK
Category: Medium
Scheduled Services: No

Elevation: 39 ft
TransAlt. 18000 ft.

Airport Communications:
APP/DEP:120.05
ATIS:27.62
CLNC DEL:135.2
GND:120.6
BASE OPS:30.255
PMSV METRO:35.62
LEESBURG RDO:117.6
TWR:123.7

KNHK Zoom In..

Runways:

(A) RW 02 length 5021 ft width 75 ft
---- / hdg 18

(B) RW 06 length 11807 ft width 200 ft
---- / hdg 59

(C) RW 14 length 9742 ft width 200 ft
---- / hdg 136

(D) RW 20 length 5021 ft width 75 ft
---- / hdg 198

(E) RW 24 length 11807 ft width 200 ft
---- / hdg 239

(F) RW 32 length 9742 ft width 200 ft
---- / hdg 316

Location; KNHK
Day. 21 / Time. 05.14 Zulu
* Altimeter: 30.01
* Temperature: 25° c. 77°f.
* Wind from: 120° Speed 12 kn.
Dewpoint: 23° c.
Visibility: 10 Statute Miles.
Clouds: Scattered 2500 ft.
Clouds: Broken 6500 ft.

KNHK 210514Z AUTO 12012KT 10SM SCT025 BKN065 25/23 A3001 RMK AO2 T02500228


Wind From 120°
Speed 12 kn.

 
 
jpsmedia.com for Web Design worldairports.se 2018   terms of use